Regional Weather Roundup
Issued by NWS

Current Version | Previous Version | Text Only | Print | Product List | Glossary On
Versions: 1 2 3 4 5 6 7 8 9 10 11 12 13 14 15 16 17 18 19 20 21 22 23 24 25 26 27 28 29 30 31 32 33 34 35 36 37 38 39 40 41 42 43 44 45 46 47 48 49 50
000
ASUS45 KCYS 010710
RWRWY

WYOMING REGIONAL WEATHER ROUNDUP
NATIONAL WEATHER SERVICE CHEYENNE WY
1200 AM MST MON MAR 01 2021

NOTE:  "FAIR" INDICATES FEW OR NO CLOUDS BELOW 12,000 FEET
WITH NO SIGNIFICANT WEATHER AND/OR OBSTRUCTIONS TO VISIBILITY.

WYZ001-010800-
...YELLOWSTONE NATIONAL PARK...

CITY           SKY/WX    TMP DP  RH WIND       PRES   REMARKS
LK YELLOWSTONE   N/A     11   8  88 CALM      30.28R
W YELLOWSTONE  NOT AVBL

$$
WYZ002>013-054>058-071-098>099-010800-
...NORTHERN WYOMING...

CITY           SKY/WX    TMP DP  RH WIND       PRES   REMARKS
JACKSON        LGT SNOW  15  11  83 N9        30.32R FOG     WCI   3
CODY           CLEAR     31  13  47 W10G16    30.16R WCI  22
GREYBULL       CLEAR     14   9  80 SE5       30.22R WCI   6
WORLAND        CLEAR      8   4  83 CALM      30.21R
SHERIDAN       CLEAR     18   9  68 S7        30.12R WCI   9
BUFFALO        CLEAR     24   9  52 W10       30.11R WCI  14
GILLETTE       PTCLDY    25  13  60 SW14      30.11R WCI  13
HULETT         CLOUDY    32  18  55 SW12G17   30.10R WCI  23
NEWCASTLE      CLOUDY    28  16  59 CALM      30.14S

$$
WYZ014>020-022>026-101>103-010800-
...CENTRAL WYOMING...

CITY           SKY/WX    TMP DP  RH WIND       PRES   REMARKS
BIG PINEY      CLEAR     12   5  73 NW13      30.24S WCI  -3
PINEDALE       CLEAR     18   9  68 NW18G24   30.21R WCI   2
DUBOIS         CLEAR     19   9  63 W28G35    30.18R WCI   1
LANDER         CLEAR     23   9  55 VRB3      30.19R
RIVERTON       CLEAR     16   7  67 NW9       30.19R WCI   4
CASPER         CLEAR     22   9  57 SW15      30.18R WCI   9
DOUGLAS        CLEAR     23  12  62 NW8       30.19R WCI  14

$$
WYZ021-027>030-104>119-010800-
...SOUTHERN WYOMING...

CITY           SKY/WX    TMP DP  RH WIND       PRES   REMARKS
EVANSTON       CLEAR      9   4  80 W9        30.31R WCI  -4
KEMMERER       CLEAR     14   9  79 W12G18    30.26S WCI   0
FORT BRIDGER   CLEAR     13   7  78 W14       30.32S WCI  -2
ROCK SPRINGS   CLEAR     14   6  70 SW17      30.27R WCI  -3
DIXON          CLEAR      3  -4  73 E17       30.36R WCI -17
RAWLINS        CLEAR     15   3  59 SW14      30.25R WCI   0
SARATOGA       CLEAR     10   1  67 S3        30.27S
LARAMIE        CLEAR     15   2  56 SW13      30.16R WCI   1
CHEYENNE       CLEAR     23   5  46 W12       30.15R WCI  12
TORRINGTON     CLEAR     30  12  47 NW12      30.18R WCI  20
PINE BLUFFS    CLEAR     19   5  53 SW5       30.17R WCI  13

$$



USA.gov is the U.S. government's official web portal to all federal, state and local government web resources and services.